Regional Weather Roundup
Issued by NWS

Home | Current Version | Previous Version | Text Only | Print | Product List | Glossary On
Versions: 1 2 3 4 5 6 7 8 9 10 11 12 13 14 15 16 17 18 19 20 21 22 23 24 25 26 27 28 29 30 31 32 33 34 35 36 37 38 39 40 41 42 43 44 45 46 47 48 49 50
000
ASUS43 KLMK 240702
RWRKY
KENTUCKY REGIONAL WEATHER ROUNDUP
NATIONAL WEATHER SERVICE LOUISVILLE KY
300 AM EDT THU APR 24 2014

NOTE "FAIR" INDICATES FEW OR NO CLOUDS BELOW 12,000 FEET
WITH NO SIGNIFICANT WEATHER AND/OR OBSTRUCTIONS TO VISIBILITY.

KYZ001>023-026-027-061>063-070>075-240800-
WESTERN AND SOUTH CENTRAL KENTUCKY

CITY           SKY/WX    TMP DP  RH WIND       PRES   REMARKS
PADUCAH        CLEAR     50  38  63 E7        29.95F
HENDERSON      PTCLDY    52  34  50 SE5       29.99F
OWENSBORO      CLEAR     50  35  56 E7        30.01F
HOPKINSVILLE   PTCLDY    51  35  54 E6        29.98F
BOWLING GREEN  PTCLDY    47  35  63 CALM      30.01F
GLASGOW        NOT AVBL
$$

KYZ024-025-028>034-038-045-046-053-240800-
NORTH CENTRAL KENTUCKY

CITY           SKY/WX    TMP DP  RH WIND       PRES   REMARKS
LOUISVILLE/SDF MOCLDY    54  34  46 E7        30.03S
LOUISVILLE/LOU MOCLDY    57  32  38 E3        30.04S
FORT KNOX      PTCLDY    49  34  55 NE6       30.01F
$$

KYZ035>037-039>044-047>052-055>060-089>105-240800-
NORTHEAST KENTUCKY

CITY           SKY/WX    TMP DP  RH WIND       PRES   REMARKS
LEXINGTON      PTCLDY    51  34  52 E12       30.04S
COVINGTON      CLOUDY    51  34  52 E10       30.05F
FRANKFORT      MOCLDY    48  36  63 E7        30.03F
$$

KYZ054-064>069-076>088-106>120-240800-
SOUTHEAST KENTUCKY

CITY           SKY/WX    TMP DP  RH WIND       PRES   REMARKS
JACKSON        CLEAR     48  30  49 VRB3      30.05S
LONDON         CLEAR     46  33  60 VRB3      30.02F
SOMERSET       NOT AVBL
MIDDLESBORO    CLEAR     40  36  86 CALM      30.03F
MONTICELLO     SUNNY     38  35  89 CALM      30.04F
$$




USA.gov is the U.S. government's official web portal to all federal, state and local government web resources and services.